Weather History for Boulmer, United Kingdom

Change the Weather History Date:

Saturday, March 2, 2013

  Actual Average Record
Temperature  
Mean Temperature 42 °F -  
Max Temperature 53 °F - - ()
Min Temperature 30 °F - - ()
Degree Days  
Heating Degree Days 24    
Moisture  
Dew Point 36 °F    
Average Humidity 75    
Maximum Humidity 93    
Minimum Humidity 50    
Precipitation  
Precipitation 0.00 in - - ()
Sea Level Pressure  
Sea Level Pressure 30.29 in    
Wind  
Wind Speed 8 mph ()    
Max Wind Speed 15 mph    
Max Gust Speed -    
Visibility 7.8 miles    
Events      
T = Trace of Precipitation, MM = Missing Value Source: Averaged Metar Reports

Daily Weather History Graph

Daily Weather History Graph

Search for Another Location

Airport:

Trip Planner

Search our weather history database for the weather conditions in past years. The results will help you decide how hot, cold, wet, or windy it might be!

Date:

Astronomy

Mar. 02, 2013 Rise Set
Actual Time 6:54 AM GMT 5:43 PM GMT
Civil Twilight 6:17 AM GMT 6:20 PM GMT
Nautical Twilight 5:35 AM GMT 7:02 PM GMT
Astronomical Twilight 4:52 AM GMT 7:45 PM GMT
Moon No Moon Rise 8:13 AM GMT (3/2)
Length of Visible Light 12h 02m
Length of Day
10h 49m
Waning Gibbous, 76% of the Moon is Illuminated
Mar 2
Waning Gibbous
Mar 4
Last Quarter
Mar 11
New
Mar 19
First Quarter
Mar 27
Full

Hourly Weather History & Observations

Time (GMT) Temp. Windchill Dew Point Humidity Pressure Visibility Wind Dir Wind Speed Gust Speed Precip Events Conditions
12:50 AM 33.8 °F 27.0 °F 30.2 °F 87% 30.42 in 6.2 mi WSW 8.1 mph - N/A   Unknown
1:50 AM 30.2 °F 23.4 °F 28.4 °F 93% 30.39 in 6.2 mi WSW 6.9 mph - N/A   Unknown
2:50 AM 36 °F - 31 °F 76% 30.38 in 11 mi West 11.5 mph - -  
2:50 AM 35.6 °F 27.5 °F 32.0 °F 87% 30.36 in 6.2 mi West 11.5 mph - N/A   Unknown
3:50 AM 35.6 °F 27.5 °F 30.2 °F 81% 30.33 in 6.2 mi WSW 11.5 mph - N/A   Unknown
4:50 AM 33.8 °F 25.8 °F 30.2 °F 87% 30.33 in 6.2 mi WSW 10.4 mph - N/A   Unknown
5:50 AM 36 °F - 31 °F 77% 30.33 in 11 mi West 12.7 mph - -  
6:50 AM 35.6 °F 26.6 °F 30.2 °F 81% 30.30 in 6.2 mi West 13.8 mph - N/A   Unknown
7:50 AM 35.6 °F 27.5 °F 32.0 °F 87% 30.30 in 6.2 mi WSW 11.5 mph - N/A   Unknown
8:50 AM 42 °F - 34 °F 64% 30.30 in 19 mi West 15.0 mph - -  
8:50 AM 42.8 °F 35.4 °F 33.8 °F 70% 30.30 in 6.2 mi West 15.0 mph - N/A   Unknown
9:50 AM 46.4 °F 40.4 °F 35.6 °F 66% 30.30 in 6.2 mi West 13.8 mph - N/A   Unknown
10:50 AM 48.2 °F - 35.6 °F 62% 30.30 in 6.2 mi WNW 12.7 mph - N/A   Unknown
11:50 AM 51 °F - 38 °F 50% 30.29 in 17 mi WNW 12.7 mph - -  
11:50 AM 50.0 °F - 37.4 °F 62% 30.27 in 6.2 mi WNW 12.7 mph - N/A   Unknown
12:50 PM 51.8 °F - 35.6 °F 54% 30.27 in 6.2 mi WNW 6.9 mph - N/A   Unknown
1:50 PM 53.6 °F - 37.4 °F 54% 30.24 in 6.2 mi West 3.5 mph - N/A   Scattered Clouds
2:50 PM 51 °F - 39 °F 53% 30.27 in 31 mi North 3.5 mph - -   Scattered Clouds
2:50 PM 51.8 °F - 39.2 °F 62% 30.24 in 6.2 mi North 3.5 mph - N/A   Mostly Cloudy
3:50 PM 48.2 °F - 41.0 °F 76% 30.24 in 6.2 mi NNE 4.6 mph - N/A   Overcast
4:50 PM 46.4 °F 45.2 °F 41.0 °F 81% 30.24 in 6.2 mi SSW 3.5 mph - N/A   Overcast
5:50 PM 47 °F - 41 °F 71% 30.26 in 10 mi SSE 2.3 mph - -   Overcast
5:50 PM 46.4 °F - 41.0 °F 81% 30.24 in 6.2 mi SSE 2.3 mph - N/A   Overcast
6:50 PM 46.4 °F 44.3 °F 41.0 °F 81% 30.24 in 6.2 mi WSW 4.6 mph - N/A   Overcast
7:50 PM 46.4 °F 42.4 °F 41.0 °F 81% 30.24 in 6.2 mi WSW 8.1 mph - N/A   Overcast
8:50 PM 47 °F - 40 °F 69% 30.26 in 28 mi West 6.9 mph - -   Overcast
8:50 PM 46.4 °F 42.9 °F 39.2 °F 76% 30.24 in 6.2 mi West 6.9 mph - N/A   Overcast
9:50 PM 44.6 °F 41.4 °F 41.0 °F 87% 30.24 in 6.2 mi NNE 5.8 mph - N/A   Mostly Cloudy
10:50 PM 44.6 °F 43.1 °F 41.0 °F 87% 30.24 in 6.2 mi NW 3.5 mph - N/A   Overcast
11:50 PM 44 °F - 40 °F 83% 30.27 in 16 mi NNW 3.5 mph - -   Overcast
11:50 PM 44.6 °F 43.1 °F 41.0 °F 87% 30.24 in 6.2 mi NNW 3.5 mph - N/A   Overcast